User: anonymous   Login
Location: Oshawa
(43.9000°N, 78.8670°W)
Time: 21:55:58
(UTC-04:00)
Language:

Cosmos 1500 - Orbit

View from above orbital plane
View from above orbital plane
View from above satellite
View from above satellite

Ground track
Ground track

The orbit data is extracted from the following two-line orbital elements,

1 14372U 83099A   14304.31016624  .00007139  00000-0  40885-3 0  6750
2 14372 082.5201 209.6010 0018052 167.8544 331.8076 15.12329551692397
Epoch (UTC): 31 October 2014 07:26:38
Eccentricity: 0.0018052
inclination: 82.5201°
perigee height: 516 km
apogee height: 541 km
right ascension of ascending node: 209.6010°
argument of perigee: 167.8544°
revolutions per day: 15.12329551
mean anomaly at epoch: 331.8076°
orbit number at epoch: 69239

The dashed part of the orbit path shows where the satellite is in the earth's shadow,  

DLR